This is the latest recevied weather packets stored in our database for station/object KC9MWQ-13. If no packets are shown the sender has not sent any weather packets the latest 1 day(s).
| Time | Temp. | Humidity | Pressure | Rain* | Wind** | Luminosity | Snow |
|---|---|---|---|---|---|---|---|
| 1836274702 | 22.78° C | 79% | 1019.7 hPa | 0 mm | 0.45 m/s, 307° | 0 W/m² | - |
| 1836274555 | 22.22° C | 81% | 1019.5 hPa | 0 mm | 0 m/s | 0 W/m² | - |
| 1836274400 | 22.78° C | 79% | 1019.6 hPa | 0 mm | 1.34 m/s, 33° | 0 W/m² | - |
| 1836274254 | 22.22° C | 80% | 1019.8 hPa | 0 mm | 0.45 m/s, 282° | 0 W/m² | - |
| 1836274098 | 22.78° C | 79% | 1019.6 hPa | 0 mm | 0 m/s | 0 W/m² | - |
| 1778041169 | 7.78° C | 99% | 1010.8 hPa | 0 mm | 0 m/s | 0 W/m² | - |
| 1778040867 | 8.33° C | 99% | 1010.7 hPa | 0 mm | 0 m/s | 0 W/m² | - |
| 1778040564 | 8.33° C | 99% | 1010.4 hPa | 1.78 mm | 0 m/s | 0 W/m² | - |
| 1778040261 | 8.33° C | 99% | 1010.3 hPa | 0 mm | 0 m/s | 0 W/m² | - |
| 1778039957 | 8.33° C | 99% | 1010.3 hPa | 1.27 mm | 0 m/s | 0 W/m² | - |
| 1778039655 | 8.33° C | 99% | 1010.4 hPa | 1.27 mm | 0 m/s | 0 W/m² | - |
| 1778039351 | 8.33° C | 99% | 1010.9 hPa | 1.78 mm | 0 m/s | 0 W/m² | - |
| 1778039049 | 8.33° C | 99% | 1011.2 hPa | 1.27 mm | 0 m/s | 0 W/m² | - |
| 1778038745 | 8.33° C | 99% | 1010.9 hPa | 3.05 mm | 0 m/s | 0 W/m² | - |
| 1778038443 | 8.33° C | 99% | 1010.9 hPa | 3.05 mm | 0 m/s | 0 W/m² | - |
| 1778038139 | 8.33° C | 99% | 1010.5 hPa | 3.05 mm | 0 m/s | 0 W/m² | - |
| 1778037836 | 8.33° C | 99% | 1010.4 hPa | 1.78 mm | 0 m/s | 0 W/m² | - |
| 1778037533 | 8.33° C | 99% | 1010.3 hPa | 1.27 mm | 0 m/s | 0 W/m² | - |
| 1778037230 | 8.33° C | 99% | 1010.3 hPa | 3.05 mm | 0 m/s | 0 W/m² | - |
| 1778036928 | 8.33° C | 99% | 1010.7 hPa | 1.78 mm | 0 m/s | 0 W/m² | - |
| 1778036626 | 8.33° C | 99% | 1010.4 hPa | 1.78 mm | 0 m/s | 0 W/m² | - |
| 1778036322 | 8.33° C | 99% | 1010.3 hPa | 3.05 mm | 0 m/s | 0 W/m² | - |
| 1778036019 | 8.33° C | 99% | 1010.3 hPa | 4.32 mm | 0 m/s | 0 W/m² | - |
| 1778035716 | 8.33° C | 99% | 1010.4 hPa | 1.27 mm | 0 m/s | 0 W/m² | - |
| 1778035413 | 8.33° C | 99% | 1010.7 hPa | 1.78 mm | 0 m/s | 0 W/m² | - |
* Rain latest hour (hover to see other rain measurements)
** Current wind speed in m/s (hover to see current wind gust speed)